User: anonymous   Login
Location: Vancouver
(49.2500°N, 123.1330°W)
Time: 10:08:13
(UTC-08:00)
Language:

BREEZE-M DEB (TANK) - Orbit

View from above orbital plane
View from above orbital plane
View from above satellite
View from above satellite

Ground track
Ground track

The orbit data is extracted from the following two-line orbital elements,

1 27821U 03024B   17054.23163213  .00004771  00000-0  45466-3 0  9994
2 27821  49.6186  17.0338 4947621 302.7318  18.8920  5.75073648273886
Epoch (UTC): 23 February 2017 05:33:33
Eccentricity: 0.4947621
inclination: 49.6186°
perigee height: 271 km
apogee height: 13292 km
right ascension of ascending node: 17.0338°
argument of perigee: 302.7318°
revolutions per day: 5.75073648
mean anomaly at epoch: 18.8920°
orbit number at epoch: 27388

The dashed part of the orbit path shows where the satellite is in the earth's shadow,  

DLR